Precipitable_Water
0.43 0.39 0.35 0.44 0.47 0.46 0.43 0.38 0.36 0.37 0.38 0.34 0.35 0.37 0.35 0.38 0.39 0.38 0.40 0.45 0.48 0.50 0.58 0.64 0.59 0.53 0.48 0.52 0.66 0.78 0.79 0.85 0.86 0.93 0.95 1.00 1.06 1.18 1.23 1.28 1.35 1.35 1.38 1.33
0.35 0.26 0.36 0.42 0.43 0.41 0.39 0.34 0.34 0.33 0.33 0.32 0.33 0.32 0.33 0.35 0.35 0.37 0.39 0.44 0.48 0.53 0.58 0.63 0.56 0.48 0.47 0.45 0.63 0.79 0.73 0.81 0.89 0.96 1.10 1.26 1.30 1.34 1.30 1.33 1.39 1.44 1.48 1.41
0.25 0.25 0.35 0.34 0.34 0.33 0.32 0.30 0.29 0.27 0.33 0.32 0.30 0.28 0.27 0.33 0.35 0.39 0.42 0.44 0.49 0.53 0.55 0.61 0.52 0.41 0.46 0.46 0.50 0.80 0.69 0.75 0.81 1.02 1.20 1.30 1.35 1.33 1.24 1.24 1.39 1.44 1.46 1.53
0.28 0.29 0.31 0.32 0.30 0.32 0.26 0.32 0.31 0.32 0.30 0.23 0.31 0.20 0.26 0.29 0.29 0.35 0.38 0.40 0.45 0.53 0.58 0.61 0.50 0.38 0.43 0.50 0.53 0.76 0.72 0.74 0.83 1.11 1.20 1.19 1.22 1.18 1.24 1.27 1.37 1.38 1.45 1.46
0.26 0.27 0.28 0.28 0.28 0.34 0.29 0.35 0.33 0.33 0.29 0.26 0.25 0.23 0.25 0.29 0.25 0.31 0.35 0.41 0.50 0.53 0.57 0.59 0.46 0.40 0.44 0.54 0.58 0.72 0.80 0.76 0.89 1.17 1.23 1.25 1.21 1.29 1.32 1.27 1.27 1.31 1.38 1.40
0.30 0.37 0.36 0.35 0.36 0.37 0.37 0.34 0.34 0.33 0.27 0.18 0.22 0.21 0.20 0.21 0.25 0.29 0.44 0.50 0.52 0.53 0.55 0.60 0.46 0.42 0.43 0.56 0.60 0.68 0.80 0.74 0.84 1.04 1.14 1.10 1.09 1.17 1.24 1.28 1.24 1.24 1.28 1.35
0.30 0.30 0.35 0.38 0.33 0.36 0.35 0.31 0.22 0.19 0.18 0.15 0.24 0.22 0.22 0.27 0.30 0.40 0.49 0.57 0.53 0.52 0.53 0.56 0.42 0.38 0.42 0.50 0.56 0.69 0.75 0.66 0.78 0.91 1.02 1.03 1.08 1.11 1.19 1.27 1.35 1.36 1.36 1.38
0.23 0.23 0.30 0.36 0.33 0.29 0.32 0.32 0.25 0.16 0.15 0.14 0.23 0.17 0.22 0.32 0.40 0.50 0.61 0.62 0.56 0.47 0.52 0.54 0.42 0.37 0.43 0.48 0.56 0.67 0.76 0.64 0.73 0.81 0.93 0.98 1.06 1.08 1.12 1.28 1.36 1.45 1.39 1.36
0.22 0.22 0.31 0.36 0.36 0.36 0.32 0.29 0.33 0.27 0.25 0.18 0.19 0.23 0.31 0.36 0.42 0.51 0.59 0.61 0.52 0.47 0.51 0.52 0.43 0.38 0.44 0.49 0.53 0.63 0.71 0.72 0.69 0.74 0.81 0.85 0.95 1.02 1.01 1.10 1.28 1.47 1.44 1.43
0.27 0.20 0.29 0.32 0.38 0.37 0.35 0.37 0.28 0.29 0.18 0.14 0.18 0.20 0.22 0.30 0.38 0.54 0.60 0.60 0.51 0.47 0.50 0.51 0.42 0.36 0.44 0.51 0.53 0.61 0.70 0.61 0.70 0.73 0.75 0.78 0.83 0.91 0.92 0.99 1.14 1.27 1.28 1.25
0.30 0.26 0.27 0.32 0.30 0.30 0.32 0.30 0.31 0.30 0.27 0.18 0.16 0.18 0.31 0.34 0.44 0.54 0.63 0.63 0.50 0.47 0.48 0.48 0.40 0.36 0.44 0.50 0.52 0.57 0.65 0.59 0.56 0.63 0.71 0.73 0.72 0.75 0.85 0.93 0.98 1.07 1.15 1.13
0.30 0.29 0.25 0.26 0.35 0.38 0.33 0.31 0.32 0.26 0.25 0.29 0.23 0.19 0.41 0.46 0.51 0.61 0.70 0.67 0.53 0.52 0.49 0.47 0.38 0.35 0.42 0.46 0.49 0.54 0.61 0.56 0.52 0.52 0.54 0.56 0.68 0.73 0.75 0.86 0.76 0.92 1.04 1.09
0.30 0.28 0.23 0.25 0.35 0.42 0.33 0.34 0.34 0.34 0.34 0.28 0.24 0.23 0.45 0.51 0.52 0.60 0.70 0.62 0.54 0.52 0.52 0.46 0.38 0.33 0.39 0.45 0.47 0.50 0.57 0.52 0.53 0.52 0.52 0.49 0.53 0.66 0.62 0.61 0.65 0.81 1.03 1.06
0.33 0.28 0.24 0.19 0.23 0.32 0.28 0.33 0.36 0.34 0.28 0.30 0.30 0.33 0.41 0.46 0.48 0.60 0.64 0.62 0.54 0.46 0.52 0.48 0.39 0.32 0.37 0.44 0.46 0.48 0.51 0.53 0.52 0.55 0.55 0.48 0.42 0.47 0.52 0.57 0.61 0.74 0.89 0.92
0.35 0.25 0.27 0.27 0.28 0.29 0.27 0.26 0.30 0.29 0.29 0.28 0.30 0.34 0.41 0.47 0.51 0.58 0.65 0.64 0.52 0.46 0.49 0.50 0.44 0.33 0.34 0.42 0.46 0.49 0.48 0.51 0.52 0.51 0.53 0.50 0.47 0.47 0.53 0.57 0.59 0.63 0.69 0.72
0.40 0.27 0.29 0.26 0.29 0.29 0.27 0.28 0.32 0.31 0.32 0.33 0.34 0.35 0.48 0.54 0.60 0.60 0.64 0.66 0.58 0.51 0.52 0.54 0.53 0.44 0.32 0.38 0.45 0.46 0.46 0.47 0.50 0.49 0.51 0.51 0.43 0.43 0.49 0.54 0.57 0.62 0.65 0.68
0.34 0.34 0.30 0.24 0.33 0.31 0.22 0.28 0.31 0.36 0.39 0.34 0.30 0.37 0.49 0.52 0.55 0.58 0.63 0.67 0.62 0.53 0.55 0.53 0.50 0.49 0.41 0.34 0.41 0.44 0.43 0.48 0.46 0.46 0.52 0.51 0.42 0.41 0.45 0.48 0.50 0.52 0.55 0.62
0.34 0.36 0.38 0.32 0.35 0.22 0.30 0.36 0.36 0.35 0.37 0.40 0.39 0.42 0.45 0.50 0.58 0.62 0.68 0.67 0.63 0.55 0.54 0.59 0.58 0.50 0.49 0.43 0.40 0.45 0.46 0.43 0.43 0.43 0.50 0.52 0.42 0.41 0.45 0.47 0.43 0.45 0.49 0.49
0.39 0.38 0.37 0.33 0.31 0.33 0.36 0.41 0.38 0.38 0.35 0.41 0.39 0.44 0.50 0.58 0.61 0.60 0.67 0.72 0.68 0.61 0.61 0.61 0.65 0.61 0.54 0.49 0.40 0.41 0.41 0.44 0.40 0.40 0.46 0.49 0.42 0.39 0.43 0.42 0.43 0.41 0.40 0.40
0.42 0.44 0.38 0.39 0.29 0.23 0.35 0.47 0.53 0.50 0.29 0.45 0.46 0.47 0.51 0.57 0.47 0.49 0.64 0.70 0.70 0.73 0.66 0.65 0.67 0.67 0.59 0.53 0.48 0.38 0.38 0.40 0.40 0.38 0.44 0.48 0.43 0.35 0.40 0.43 0.43 0.42 0.40 0.38
0.32 0.39 0.35 0.38 0.32 0.35 0.47 0.53 0.59 0.35 0.31 0.48 0.50 0.51 0.53 0.49 0.52 0.58 0.62 0.67 0.71 0.72 0.73 0.75 0.71 0.63 0.60 0.58 0.52 0.40 0.36 0.35 0.41 0.43 0.43 0.45 0.44 0.35 0.36 0.42 0.43 0.42 0.41 0.43
0.31 0.29 0.33 0.39 0.32 0.25 0.53 0.55 0.41 0.51 0.51 0.52 0.52 0.53 0.53 0.57 0.59 0.61 0.62 0.62 0.71 0.70 0.74 0.75 0.74 0.67 0.65 0.64 0.55 0.45 0.34 0.36 0.42 0.47 0.44 0.44 0.42 0.38 0.36 0.39 0.41 0.41 0.40 0.39
0.32 0.37 0.32 0.39 0.35 0.50 0.56 0.51 0.55 0.58 0.53 0.52 0.51 0.52 0.55 0.57 0.62 0.62 0.58 0.63 0.72 0.75 0.74 0.74 0.71 0.68 0.65 0.65 0.61 0.49 0.43 0.37 0.40 0.45 0.46 0.47 0.45 0.41 0.36 0.35 0.37 0.39 0.41 0.37
0.46 0.53 0.43 0.45 0.47 0.49 0.55 0.59 0.60 0.60 0.57 0.59 0.58 0.57 0.58 0.53 0.55 0.59 0.61 0.63 0.69 0.73 0.70 0.72 0.73 0.71 0.69 0.67 0.63 0.58 0.55 0.44 0.37 0.40 0.44 0.48 0.49 0.45 0.45 0.39 0.36 0.38 0.39 0.38
0.38 0.43 0.39 0.42 0.52 0.54 0.56 0.59 0.62 0.63 0.63 0.60 0.60 0.59 0.60 0.61 0.62 0.65 0.66 0.67 0.71 0.73 0.75 0.75 0.71 0.69 0.69 0.70 0.68 0.68 0.65 0.58 0.47 0.44 0.47 0.49 0.51 0.52 0.49 0.49 0.44 0.39 0.43 0.44
0.52 0.42 0.38 0.33 0.44 0.52 0.57 0.64 0.65 0.60 0.59 0.59 0.57 0.58 0.63 0.67 0.68 0.70 0.72 0.76 0.78 0.76 0.77 0.75 0.73 0.73 0.72 0.75 0.74 0.73 0.73 0.69 0.63 0.58 0.55 0.57 0.57 0.57 0.58 0.57 0.58 0.63 0.58 0.58
Wind_Speed
19 19 20 19 19 18 17 17 18 17 18 17 18 19 21 16 14 13 13 13 13 13 13 13 15 15 17 18 18 17 16 17 17 15 14 13 13 12 11 12 11 7 2 5
16 22 19 19 18 18 17 18 19 18 17 15 19 19 17 13 14 14 13 13 12 12 12 12 13 14 15 16 15 15 14 15 16 15 14 15 14 13 13 13 16 18 16 14
19 16 18 19 19 17 18 17 18 18 16 18 16 18 16 15 14 13 14 14 14 13 11 11 11 12 13 14 14 13 12 14 14 13 14 16 17 15 16 16 17 19 21 19
20 19 18 17 18 17 18 18 18 17 15 16 14 18 17 15 15 15 15 16 15 13 11 10 10 9 10 11 12 11 11 12 12 12 14 16 18 17 17 18 20 21 21 23
19 17 17 16 19 16 19 15 16 17 16 14 15 13 15 13 15 16 17 15 14 12 10 9 8 7 8 8 9 9 9 11 11 12 14 15 17 15 15 16 17 17 17 18
21 19 20 20 18 17 15 14 13 13 12 12 15 12 14 13 13 16 13 13 13 11 10 8 6 5 6 6 7 7 7 9 9 10 11 13 16 16 13 12 11 10 13 16
18 18 19 17 15 14 12 11 13 13 11 13 9 10 15 15 15 14 13 11 12 11 9 7 5 4 4 3 4 5 6 6 7 8 9 11 13 15 15 13 12 11 10 14
20 20 19 18 19 17 15 13 12 14 13 14 10 13 15 13 13 14 13 10 10 10 9 7 5 4 2 1 1 2 4 4 5 7 8 9 10 12 14 15 15 15 16 17
18 21 16 19 18 17 15 14 14 12 14 12 14 15 16 10 10 11 6 6 11 10 8 7 6 4 2 1 1 1 3 3 4 5 6 7 8 9 12 13 14 16 17 17
22 15 18 19 17 18 19 16 13 12 12 13 13 13 11 12 11 8 8 7 10 10 8 6 7 6 4 2 2 2 2 3 4 5 5 6 6 7 9 10 12 14 15 16
23 20 16 16 21 19 16 16 13 13 12 13 12 12 10 10 11 10 8 8 11 12 8 7 8 7 5 4 3 2 2 3 4 5 6 6 6 7 8 10 11 11 12 13
27 21 21 21 18 20 22 20 18 15 15 13 12 14 10 10 11 9 6 8 10 12 9 7 9 9 7 5 4 3 3 4 5 5 6 7 7 8 9 10 10 11 13 14
27 23 19 18 20 20 19 18 17 15 13 16 12 13 10 9 8 9 7 8 10 12 9 7 9 10 9 7 6 5 5 5 6 6 7 7 8 9 10 10 11 12 15 15
29 26 27 28 19 18 19 19 18 17 15 15 15 13 13 10 10 9 7 9 10 13 12 9 10 12 10 9 7 6 6 6 6 7 7 7 8 9 10 11 11 13 14 14
24 27 26 25 23 22 23 22 21 21 20 18 17 16 15 14 12 12 10 9 11 12 14 12 10 12 13 11 9 7 8 8 7 7 8 8 8 9 10 11 11 12 13 14
24 24 23 24 25 25 25 27 24 25 19 19 17 17 15 12 11 12 11 12 14 14 16 15 13 12 14 14 11 9 9 9 9 8 8 8 8 9 11 11 12 12 13 13
24 24 21 22 21 19 30 28 25 22 21 20 20 19 15 14 15 16 15 15 16 16 15 17 16 15 14 16 14 12 11 10 10 10 9 8 8 9 11 11 12 12 12 12
25 23 21 20 19 23 22 23 26 27 24 23 20 19 18 17 18 17 17 15 17 16 15 16 17 16 15 16 17 14 13 11 11 11 11 10 9 10 11 12 12 12 12 12
31 25 23 22 24 22 22 20 19 18 22 25 23 19 19 17 14 17 16 16 17 21 18 16 18 17 16 17 18 17 15 13 13 12 13 12 11 11 11 11 12 12 11 11
32 31 27 23 24 27 25 23 20 18 21 21 23 21 18 18 17 19 17 16 18 19 22 19 18 18 19 19 19 20 18 16 15 14 14 13 13 12 12 12 12 11 11 11
34 31 34 27 26 26 24 22 20 18 18 17 21 22 21 22 22 20 19 17 17 21 23 21 20 20 21 21 21 21 21 20 18 16 16 15 14 14 13 12 12 11 10 10
35 34 33 29 28 28 25 22 24 20 18 16 17 19 19 22 19 20 19 18 16 21 22 22 21 22 21 22 23 23 23 24 22 20 18 17 17 15 14 14 13 12 11 11
37 37 36 36 32 23 27 28 27 21 18 19 20 18 20 22 23 22 18 20 17 18 20 22 21 23 23 23 23 23 23 25 24 23 22 20 19 18 17 17 16 14 13 13
35 34 33 32 34 33 30 25 23 22 17 17 17 17 17 20 20 22 23 23 22 19 19 22 23 24 24 24 24 24 23 24 26 26 25 24 22 21 20 20 19 18 17 16
39 36 38 35 29 29 31 32 25 23 19 19 18 20 21 20 19 20 22 25 26 23 21 22 23 24 25 26 26 25 25 25 24 25 25 25 25 24 23 23 22 22 21 20
36 37 38 38 39 33 30 33 30 27 24 23 22 22 22 23 21 19 21 23 24 24 25 25 25 25 25 26 28 28 27 28 26 25 25 25 25 24 24 24 24 25 24 24
Wind_Direction
237 239 239 239 243 248 257 265 269 275 279 273 269 275 288 282 273 273 271 274 284 296 310 320 330 337 343 349 353 359 4 10 13 17 21 29 30 32 40 46 50 48 98 139
237 241 239 241 245 251 258 265 270 276 280 268 274 278 288 275 276 270 267 272 281 293 305 315 327 336 344 351 354 1 6 14 21 28 39 37 37 48 55 63 65 63 79 114
234 242 235 238 246 250 256 262 266 272 282 273 273 279 285 283 283 281 274 275 281 281 293 307 323 333 342 352 358 3 11 17 27 38 45 43 50 60 69 76 71 76 88 86
240 238 235 241 248 246 261 261 263 274 280 274 268 277 279 285 284 283 274 274 269 271 281 297 316 330 340 352 2 11 17 23 37 50 51 59 54 67 75 77 78 87 86 90
236 228 234 241 244 242 255 259 263 272 269 272 273 277 279 291 288 286 281 273 260 257 263 281 303 319 336 352 8 17 25 36 52 64 68 65 57 69 79 84 85 87 87 88
237 240 234 239 243 243 255 259 274 277 269 272 269 263 278 277 281 294 297 267 255 245 250 272 290 310 333 349 12 23 34 45 61 75 70 67 63 67 79 73 89 86 92 86
236 235 237 236 238 245 248 261 275 279 272 262 276 273 272 283 287 288 289 264 244 232 236 256 270 284 318 342 12 29 41 54 68 83 78 73 70 70 68 71 76 86 94 107
229 238 226 234 231 233 241 239 249 263 267 267 267 268 284 286 296 298 290 261 224 220 226 242 247 249 279 331 19 37 51 68 81 89 91 84 82 75 72 74 77 82 97 99
228 240 237 232 233 226 238 245 256 263 271 272 265 278 292 284 301 308 304 237 213 212 219 232 228 222 222 187 86 106 65 78 101 109 106 95 92 87 80 78 81 92 102 103
231 239 233 231 232 238 235 243 256 270 265 262 269 275 277 291 293 291 281 245 214 210 220 232 215 207 202 184 133 109 110 92 114 122 122 111 106 103 88 86 97 102 102 105
227 229 239 226 229 228 238 243 253 254 255 254 265 266 268 276 279 280 270 234 212 204 213 220 206 199 195 182 164 140 133 116 115 126 131 123 116 113 106 100 102 107 113 111
224 227 233 229 235 235 239 238 238 245 254 256 252 258 263 282 288 280 256 235 217 208 206 211 200 193 190 183 165 150 144 128 126 128 128 126 121 117 119 113 108 107 117 115
216 228 228 242 239 240 236 238 240 244 249 240 245 251 250 272 290 278 253 222 209 204 208 207 199 195 191 185 173 159 149 136 128 129 126 128 129 125 124 120 114 115 121 119
212 224 226 233 234 231 235 236 236 235 242 239 243 246 253 262 288 270 244 220 207 205 205 203 201 199 196 187 181 171 165 151 137 131 130 129 133 135 132 130 124 123 127 127
213 226 229 236 233 233 235 234 231 234 239 232 240 238 253 264 265 234 233 215 206 205 208 209 203 201 199 194 188 181 174 165 152 141 134 128 132 141 141 138 135 134 131 132
221 226 224 233 232 230 236 235 231 235 241 239 235 246 251 250 246 230 223 214 215 214 213 215 210 201 201 199 194 189 181 177 169 160 151 137 133 138 145 145 145 142 141 139
221 222 224 234 230 227 242 230 231 238 238 232 231 240 241 243 239 235 230 224 220 214 211 211 210 208 204 202 199 195 190 185 180 173 167 155 145 144 146 149 149 148 148 147
219 219 225 227 220 231 247 233 228 231 235 234 235 234 238 245 242 233 223 221 216 212 210 210 212 211 208 204 202 198 193 190 185 182 175 168 159 153 152 153 153 154 155 155
220 217 223 223 229 243 240 229 220 226 239 230 232 236 242 237 239 223 216 222 221 219 215 212 212 213 208 205 202 200 196 193 190 187 184 179 172 165 161 160 160 160 161 162
219 221 221 224 226 233 234 232 229 233 244 231 231 230 232 227 227 225 222 232 229 221 217 217 216 214 212 209 204 202 201 198 197 193 191 188 183 177 173 170 168 167 168 170
216 218 220 226 231 240 235 223 218 221 238 230 225 228 234 230 235 229 232 233 232 222 215 217 216 214 213 209 207 207 206 206 203 199 196 194 192 188 186 183 181 179 180 181
215 214 219 223 228 235 223 219 215 229 230 231 228 227 229 229 225 218 224 228 234 219 214 215 222 218 213 210 210 212 212 212 208 206 204 202 201 201 199 197 197 197 196 198
217 217 218 221 225 229 221 227 230 226 232 233 234 236 234 227 223 227 235 228 221 213 213 219 217 213 214 212 212 213 215 213 211 211 212 211 210 211 212 211 212 213 215 218
219 215 216 220 225 226 225 229 225 226 228 226 229 230 226 228 232 233 234 223 220 221 224 220 215 216 216 215 215 215 213 214 214 215 217 217 218 219 221 222 223 224 226 229
219 215 217 222 225 223 225 223 218 220 228 230 236 238 236 231 238 234 228 225 226 229 225 217 218 220 221 219 218 216 215 213 215 216 218 220 223 224 226 228 229 230 234 236
216 217 217 222 220 219 220 221 226 231 236 237 238 239 238 232 236 235 230 227 225 228 225 224 226 224 224 222 220 219 218 218 217 219 220 222 224 226 229 231 235 237 239 241